AFL1210 UUEE-OMDB

Flight info

Callsign AFL1210
Flight time N/A
Altitude 37000
Route EMGAS3H EMGAS T828 OLBEG N72 WGD A927 SL A964 NOKLI N72 BISNA/N0495F370 N72 PAXID Z725 DAVMI M718 SAV L124 PEKAM P574 SYZ A418 KIS B547 SIR L223 VUTEB
Aircraft A359/H-SDE2E3GHIJ3J4J5LM1ORWXY/LB1D1

Departure

Time 2026-05-07 18:05
Airport Sheremetyevo International Airport (UUEE)

Arrival

Time N/A
Airport Dubai International Airport (OMDB)
Time Latitude Longitude Altitude Speed Heading
2026-05-07 17:47 55.97992 37.41553 646 ft 0 kts 76°
2026-05-07 17:54 55.97989 37.41527 645 ft 3 kts 88°
2026-05-07 17:54 55.97990 37.41490 645 ft 3 kts 109°
2026-05-07 17:55 55.98000 37.41458 648 ft 3 kts 131°
2026-05-07 17:55 55.98012 37.41437 648 ft 0 kts 149°
2026-05-07 17:58 55.98011 37.41438 648 ft 2 kts 149°
2026-05-07 17:58 55.97979 37.41465 646 ft 9 kts 156°
2026-05-07 17:58 55.97920 37.41503 645 ft 8 kts 164°
2026-05-07 17:59 55.97898 37.41514 645 ft 0 kts 164°
2026-05-07 17:59 55.97879 37.41523 645 ft 7 kts 165°
2026-05-07 17:59 55.97810 37.41553 645 ft 14 kts 166°
2026-05-07 17:59 55.97700 37.41597 645 ft 19 kts 176°
2026-05-07 18:00 55.97616 37.41701 645 ft 16 kts 83°
2026-05-07 18:00 55.97644 37.41902 645 ft 17 kts 75°
2026-05-07 18:00 55.97676 37.42118 645 ft 19 kts 76°
2026-05-07 18:00 55.97710 37.42346 645 ft 20 kts 76°
2026-05-07 18:01 55.97745 37.42591 645 ft 21 kts 74°
2026-05-07 18:01 55.97786 37.42850 646 ft 22 kts 75°
2026-05-07 18:01 55.97827 37.43124 645 ft 23 kts 75°
2026-05-07 18:01 55.97869 37.43411 645 ft 24 kts 75°
2026-05-07 18:02 55.97936 37.43848 645 ft 0 kts 75°
2026-05-07 18:03 55.97937 37.43854 645 ft 2 kts 75°
2026-05-07 18:03 55.97948 37.43923 645 ft 8 kts 75°
2026-05-07 18:03 55.97933 37.44020 645 ft 9 kts 143°
2026-05-07 18:03 55.97870 37.44061 646 ft 0 kts 163°
2026-05-07 18:04 55.97867 37.44063 646 ft 3 kts 163°
2026-05-07 18:04 55.97818 37.44076 646 ft 11 kts 186°
2026-05-07 18:04 55.97769 37.43946 647 ft 16 kts 255°
2026-05-07 18:04 55.97715 37.43590 646 ft 58 kts 255°
2026-05-07 18:05 55.97553 37.42511 646 ft 122 kts 255°
2026-05-07 18:05 55.97287 37.40714 747 ft 168 kts 256°
2026-05-07 18:05 55.96965 37.38662 1361 ft 170 kts 255°
2026-05-07 18:05 55.96636 37.36599 1922 ft 168 kts 254°
2026-05-07 18:06 55.96328 37.34654 2542 ft 162 kts 255°
2026-05-07 18:06 55.96027 37.32739 3151 ft 163 kts 255°
2026-05-07 18:06 55.95720 37.30779 3766 ft 164 kts 255°
2026-05-07 18:06 55.95417 37.28840 4375 ft 164 kts 255°
2026-05-07 18:07 55.95111 37.26879 4991 ft 164 kts 254°
2026-05-07 18:07 55.94802 37.24909 5611 ft 165 kts 253°
2026-05-07 18:07 55.94488 37.22910 6247 ft 168 kts 253°
2026-05-07 18:07 55.94170 37.20883 6860 ft 171 kts 253°
2026-05-07 18:08 55.93844 37.18810 7393 ft 181 kts 253°
2026-05-07 18:08 55.93493 37.16584 8013 ft 190 kts 252°
2026-05-07 18:08 55.93125 37.14252 8637 ft 200 kts 252°
2026-05-07 18:08 55.92737 37.11795 9275 ft 211 kts 252°
2026-05-07 18:09 55.92330 37.09227 9915 ft 223 kts 252°
2026-05-07 18:09 55.91902 37.06497 10514 ft 234 kts 253°
2026-05-07 18:09 55.91668 37.03543 11119 ft 249 kts 268°
2026-05-07 18:09 55.92068 37.00435 11745 ft 268 kts 290°
2026-05-07 18:10 55.93228 36.97772 12375 ft 285 kts 314°
2026-05-07 18:10 55.94862 36.95633 13022 ft 294 kts 320°
2026-05-07 18:10 55.96591 36.93638 13680 ft 300 kts 324°
2026-05-07 18:10 55.98568 36.92278 14274 ft 313 kts 344°
2026-05-07 18:11 56.00783 36.92374 14890 ft 327 kts
2026-05-07 18:11 56.02198 36.93373 15298 ft 334 kts 25°
2026-05-07 18:11 56.04828 36.96362 16134 ft 341 kts 31°
2026-05-07 18:11 56.06810 36.98757 16776 ft 345 kts 30°
2026-05-07 18:12 56.08814 37.01155 17436 ft 347 kts 30°
2026-05-07 18:12 56.10788 37.03711 18101 ft 354 kts 39°
2026-05-07 18:12 56.12254 37.07285 18687 ft 360 kts 66°
2026-05-07 18:12 56.13012 37.11592 19290 ft 364 kts 77°
2026-05-07 18:13 56.13601 37.16050 19910 ft 368 kts 77°
2026-05-07 18:13 56.14186 37.20482 20526 ft 372 kts 76°
2026-05-07 18:13 56.14774 37.25049 21153 ft 375 kts 79°
2026-05-07 18:13 56.14883 37.29707 21792 ft 374 kts 99°
2026-05-07 18:14 56.14104 37.34114 22454 ft 368 kts 122°
2026-05-07 18:14 56.12571 37.37632 23088 ft 362 kts 143°
2026-05-07 18:14 56.10469 37.39984 23593 ft 355 kts 164°
2026-05-07 18:14 56.08098 37.41135 24069 ft 353 kts 172°
2026-05-07 18:15 56.05729 37.42540 24540 ft 362 kts 162°
2026-05-07 18:15 56.04182 37.43745 24860 ft 365 kts 160°
2026-05-07 18:15 56.01100 37.46296 25498 ft 370 kts 159°
2026-05-07 18:15 55.98753 37.48276 25990 ft 374 kts 158°
2026-05-07 18:16 55.97243 37.49801 26322 ft 379 kts 150°
2026-05-07 18:16 55.95230 37.52928 26848 ft 387 kts 134°
2026-05-07 18:16 55.93757 37.56991 27355 ft 393 kts 117°
2026-05-07 18:16 55.92535 37.61362 27887 ft 394 kts 121°
2026-05-07 18:17 55.91167 37.65600 28431 ft 394 kts 123°
2026-05-07 18:17 55.89757 37.69739 28972 ft 394 kts 124°
2026-05-07 18:17 55.88315 37.73935 29307 ft 400 kts 124°
2026-05-07 18:17 55.86843 37.78206 29590 ft 407 kts 124°
2026-05-07 18:18 55.85310 37.82520 29866 ft 413 kts 128°
2026-05-07 18:18 55.83357 37.86146 30111 ft 412 kts 147°
2026-05-07 18:18 55.80847 37.88559 30352 ft 410 kts 165°
2026-05-07 18:18 55.78068 37.89574 30605 ft 409 kts 178°
2026-05-07 18:19 55.75218 37.89919 30836 ft 413 kts 183°
2026-05-07 18:19 55.72313 37.89854 31014 ft 420 kts 185°
2026-05-07 18:19 55.69361 37.89685 31184 ft 427 kts 185°
2026-05-07 18:19 55.66352 37.89490 31362 ft 435 kts 186°
2026-05-07 18:20 55.63331 37.89286 31527 ft 443 kts 185°
2026-05-07 18:20 55.60223 37.89072 31701 ft 450 kts 185°
2026-05-07 18:20 55.57059 37.88854 31859 ft 458 kts 185°
2026-05-07 18:20 55.53832 37.88630 32056 ft 465 kts 185°
2026-05-07 18:21 55.50593 37.88406 32228 ft 471 kts 185°
2026-05-07 18:21 55.47321 37.88179 32402 ft 478 kts 185°
2026-05-07 18:21 55.43974 37.87948 32574 ft 483 kts 185°
2026-05-07 18:21 55.40587 37.87713 32763 ft 488 kts 185°
2026-05-07 18:22 55.37178 37.87479 32945 ft 491 kts 185°
2026-05-07 18:22 55.34898 37.87323 33070 ft 490 kts 185°
2026-05-07 18:22 55.30387 37.87014 33315 ft 490 kts 185°
2026-05-07 18:22 55.26982 37.86780 33515 ft 490 kts 185°
2026-05-07 18:23 55.23567 37.86546 33703 ft 489 kts 185°
2026-05-07 18:23 55.20157 37.86313 33897 ft 490 kts 185°
2026-05-07 18:23 55.16777 37.86081 34061 ft 489 kts 185°
2026-05-07 18:23 55.13351 37.85847 34235 ft 489 kts 185°
2026-05-07 18:24 55.09425 37.85580 34442 ft 489 kts 185°
2026-05-07 18:24 55.02696 37.85122 34829 ft 489 kts 185°
2026-05-07 18:24 54.95889 37.84660 35226 ft 488 kts 185°
2026-05-07 18:24 54.89105 37.84202 35627 ft 488 kts 185°
2026-05-07 18:25 54.82304 37.83744 36033 ft 487 kts 185°
2026-05-07 18:25 54.75527 37.83289 36445 ft 487 kts 185°
2026-05-07 18:25 54.68748 37.82835 36720 ft 486 kts 185°
2026-05-07 18:25 54.62077 37.82580 36903 ft 487 kts 180°
2026-05-07 18:26 54.55271 37.83148 36914 ft 487 kts 180°
2026-05-07 18:26 54.45189 37.85117 36912 ft 492 kts 165°
2026-05-07 18:26 54.32854 37.95775 36909 ft 496 kts 152°
2026-05-07 18:27 54.08724 38.18350 36919 ft 495 kts 153°
2026-05-07 18:27 53.84488 38.40525 36932 ft 495 kts 153°
2026-05-07 18:28 53.61896 38.67006 36941 ft 496 kts 141°
2026-05-07 18:28 53.39962 38.94631 36947 ft 492 kts 157°
2026-05-07 18:29 53.14734 39.12156 36953 ft 492 kts 158°
2026-05-07 18:29 52.89476 39.29522 36961 ft 493 kts 158°
2026-05-07 18:30 52.64130 39.46721 36965 ft 492 kts 158°
2026-05-07 18:30 52.38790 39.64170 36966 ft 492 kts 154°
2026-05-07 18:31 52.14407 39.84556 36967 ft 492 kts 154°
2026-05-07 18:31 51.90018 40.04311 36969 ft 492 kts 154°
2026-05-07 18:32 51.65921 40.24994 36970 ft 492 kts 148°
2026-05-07 18:32 51.42861 40.48751 36973 ft 492 kts 148°
2026-05-07 18:33 51.22029 40.76384 36976 ft 492 kts 133°
2026-05-07 18:33 51.03184 41.08272 36972 ft 491 kts 133°
2026-05-07 18:34 50.92416 41.26196 36979 ft 491 kts 134°
2026-05-07 18:34 50.82985 41.41810 36972 ft 491 kts 134°
2026-05-07 18:35 50.77589 41.50700 36971 ft 491 kts 134°
2026-05-07 18:35 50.72852 41.58480 36973 ft 491 kts 134°
2026-05-07 18:36 50.68108 41.66247 36976 ft 491 kts 134°
2026-05-07 18:36 50.63364 41.74006 36974 ft 491 kts 134°
2026-05-07 18:37 50.58597 41.81777 36976 ft 491 kts 134°
2026-05-07 18:37 50.53831 41.89522 36974 ft 492 kts 134°
2026-05-07 18:38 50.49103 41.97183 36973 ft 492 kts 134°
2026-05-07 18:38 50.44334 42.04887 36974 ft 492 kts 134°
2026-05-07 18:39 50.39544 42.12601 36974 ft 492 kts 134°
2026-05-07 18:39 50.34759 42.20280 36972 ft 492 kts 134°
2026-05-07 18:40 50.29764 42.27495 36970 ft 492 kts 139°
2026-05-07 18:40 50.24580 42.34482 36974 ft 493 kts 139°
2026-05-07 18:41 50.19401 42.41534 36976 ft 493 kts 138°
2026-05-07 18:41 50.14267 42.48621 36976 ft 493 kts 138°
2026-05-07 18:42 50.09126 42.55735 36980 ft 493 kts 137°
2026-05-07 18:42 50.04004 42.62802 36981 ft 494 kts 137°
2026-05-07 18:43 49.98859 42.69874 36981 ft 494 kts 138°
2026-05-07 18:43 49.93707 42.76933 36981 ft 494 kts 138°
2026-05-07 18:44 49.88532 42.84000 36987 ft 494 kts 138°
2026-05-07 18:44 49.83371 42.91029 36984 ft 495 kts 138°
2026-05-07 18:45 49.78203 42.98047 37008 ft 494 kts 138°
2026-05-07 18:45 49.75605 43.01567 37135 ft 495 kts 138°
2026-05-07 18:45 49.73009 43.05078 37274 ft 495 kts 138°
2026-05-07 18:45 49.70432 43.08560 37406 ft 495 kts 138°
2026-05-07 18:46 49.67816 43.12088 37553 ft 495 kts 138°
2026-05-07 18:46 49.65216 43.15590 37674 ft 495 kts 138°
2026-05-07 18:46 49.62638 43.19057 37817 ft 495 kts 138°
2026-05-07 18:46 49.60024 43.22568 37963 ft 495 kts 138°
2026-05-07 18:47 49.57412 43.26071 37989 ft 496 kts 138°
2026-05-07 18:47 49.52235 43.32997 38002 ft 496 kts 138°
2026-05-07 18:48 49.47018 43.39956 38001 ft 496 kts 138°
2026-05-07 18:48 49.41804 43.46892 38001 ft 496 kts 138°
2026-05-07 18:49 49.36566 43.53840 38007 ft 496 kts 138°
2026-05-07 18:49 49.31341 43.60749 38006 ft 496 kts 138°
2026-05-07 18:50 49.26130 43.67621 38009 ft 496 kts 138°
2026-05-07 18:50 49.20992 43.74627 38005 ft 496 kts 136°
2026-05-07 18:51 49.15908 43.81853 38010 ft 496 kts 136°
2026-05-07 18:51 49.10856 43.88997 38010 ft 496 kts 136°
2026-05-07 18:52 49.05775 43.96102 38015 ft 496 kts 136°
2026-05-07 18:52 49.00677 44.03184 38011 ft 496 kts 137°
2026-05-07 18:53 48.95582 44.10240 38005 ft 497 kts 137°
2026-05-07 18:53 48.90467 44.17307 38001 ft 497 kts 137°
2026-05-07 18:54 48.85357 44.24347 37991 ft 497 kts 137°
2026-05-07 18:54 48.80207 44.31422 37994 ft 496 kts 137°
2026-05-07 18:55 48.74760 44.37795 37993 ft 497 kts 144°
2026-05-07 18:55 48.69082 44.43727 37997 ft 497 kts 145°
2026-05-07 18:56 48.63367 44.49580 38001 ft 497 kts 145°
2026-05-07 18:56 48.57637 44.55446 38006 ft 496 kts 145°
2026-05-07 18:57 48.51911 44.61312 38008 ft 496 kts 145°
2026-05-07 18:57 48.46204 44.67151 38013 ft 496 kts 145°
2026-05-07 18:58 48.40491 44.72980 38011 ft 496 kts 145°
2026-05-07 18:58 48.34775 44.78795 38006 ft 496 kts 146°
2026-05-07 18:59 48.29062 44.84590 38006 ft 496 kts 146°
2026-05-07 18:59 48.23357 44.90361 38001 ft 496 kts 146°
2026-05-07 19:00 48.17611 44.96159 38000 ft 496 kts 146°
2026-05-07 19:00 48.11895 45.01909 37998 ft 496 kts 146°
2026-05-07 19:01 48.06153 45.07671 37999 ft 496 kts 146°
2026-05-07 19:01 48.00267 45.12983 37997 ft 496 kts 152°
2026-05-07 19:02 47.94149 45.17668 37997 ft 496 kts 153°
2026-05-07 19:02 47.87972 45.22267 37990 ft 497 kts 153°
2026-05-07 19:03 47.81790 45.26861 37994 ft 497 kts 153°
2026-05-07 19:03 47.76614 45.30713 37997 ft 497 kts 153°
2026-05-07 19:04 47.69423 45.36060 37992 ft 497 kts 153°
2026-05-07 19:04 47.64231 45.39912 37991 ft 497 kts 153°
2026-05-07 19:05 47.58045 45.44489 37991 ft 497 kts 153°
2026-05-07 19:05 47.51865 45.49049 37990 ft 497 kts 153°
2026-05-07 19:06 47.45681 45.53599 37990 ft 497 kts 153°
2026-05-07 19:06 47.36365 45.60432 37987 ft 498 kts 153°
2026-05-07 19:07 47.30205 45.64935 37986 ft 498 kts 153°
2026-05-07 19:07 47.23980 45.69474 37987 ft 498 kts 153°
2026-05-07 19:08 47.17780 45.74001 37982 ft 498 kts 153°
2026-05-07 19:08 47.11556 45.78541 37996 ft 498 kts 153°
2026-05-07 19:09 47.05351 45.83054 37988 ft 499 kts 154°
2026-05-07 19:09 46.99123 45.87571 37988 ft 499 kts 154°
2026-05-07 19:10 46.92878 45.92090 37989 ft 499 kts 154°
2026-05-07 19:10 46.86646 45.96587 37988 ft 500 kts 154°
2026-05-07 19:11 46.80419 46.01068 37990 ft 500 kts 154°
2026-05-07 19:11 46.74180 46.05546 37990 ft 499 kts 154°
2026-05-07 19:12 46.67958 46.10001 37990 ft 498 kts 154°
2026-05-07 19:12 46.61740 46.14441 37988 ft 498 kts 154°
2026-05-07 19:13 46.55492 46.18892 37993 ft 498 kts 154°
2026-05-07 19:13 46.49286 46.23300 37990 ft 497 kts 154°
2026-05-07 19:14 46.43076 46.27701 37992 ft 496 kts 154°
2026-05-07 19:14 46.36902 46.32066 37991 ft 496 kts 154°
2026-05-07 19:15 46.30668 46.36461 37992 ft 496 kts 154°
2026-05-07 19:15 46.24462 46.40825 37996 ft 496 kts 154°
2026-05-07 19:16 46.18285 46.45158 37994 ft 495 kts 154°
2026-05-07 19:16 46.12088 46.49495 37994 ft 495 kts 154°
2026-05-07 19:17 46.05862 46.53845 37996 ft 495 kts 154°
2026-05-07 19:17 45.99678 46.58166 37998 ft 494 kts 154°
2026-05-07 19:18 45.93501 46.62475 37998 ft 494 kts 154°
2026-05-07 19:18 45.87321 46.66786 38003 ft 494 kts 154°
2026-05-07 19:19 45.81129 46.71088 38001 ft 494 kts 154°
2026-05-07 19:19 45.74963 46.75362 38004 ft 493 kts 154°
2026-05-07 19:20 45.68757 46.79655 38004 ft 498 kts 155°
2026-05-07 19:20 45.62498 46.83980 38009 ft 499 kts 155°
2026-05-07 19:21 45.56255 46.88275 38010 ft 498 kts 155°
2026-05-07 19:21 45.50003 46.92568 38012 ft 498 kts 155°
2026-05-07 19:22 45.43773 46.96850 38014 ft 498 kts 155°
2026-05-07 19:22 45.37552 47.01111 38012 ft 497 kts 155°
2026-05-07 19:23 45.31327 47.05366 38016 ft 497 kts 155°
2026-05-07 19:23 45.25100 47.09611 38019 ft 497 kts 155°
2026-05-07 19:24 45.18870 47.13851 38021 ft 497 kts 155°
2026-05-07 19:24 45.12642 47.18078 38024 ft 497 kts 155°
2026-05-07 19:25 45.06407 47.22303 38024 ft 497 kts 156°
2026-05-07 19:25 45.00176 47.26524 38027 ft 497 kts 155°
2026-05-07 19:26 44.93939 47.30743 38029 ft 497 kts 156°
2026-05-07 19:26 44.87678 47.34966 38030 ft 497 kts 156°
2026-05-07 19:27 44.81464 47.39148 38033 ft 497 kts 156°
2026-05-07 19:27 44.75201 47.43350 38034 ft 497 kts 156°
2026-05-07 19:28 44.68964 47.47529 38036 ft 497 kts 156°
2026-05-07 19:28 44.62740 47.51687 38041 ft 497 kts 156°
2026-05-07 19:29 44.56494 47.55848 38039 ft 497 kts 156°
2026-05-07 19:29 44.50259 47.59995 38041 ft 497 kts 156°
2026-05-07 19:30 44.44036 47.64149 38045 ft 497 kts 156°
2026-05-07 19:30 44.37768 47.68329 38045 ft 496 kts 156°
2026-05-07 19:31 44.31531 47.72477 38047 ft 496 kts 156°
2026-05-07 19:31 44.25285 47.76619 38048 ft 496 kts 156°
2026-05-07 19:32 44.19086 47.80720 38052 ft 496 kts 157°
2026-05-07 19:32 44.12849 47.84836 38054 ft 496 kts 157°
2026-05-07 19:33 44.06589 47.88958 38054 ft 496 kts 157°
2026-05-07 19:33 44.00329 47.93069 38052 ft 500 kts 157°
2026-05-07 19:34 43.94070 47.97172 38057 ft 496 kts 157°
2026-05-07 19:34 43.87850 48.01240 38060 ft 495 kts 158°
2026-05-07 19:35 43.81622 48.05302 38065 ft 494 kts 158°
2026-05-07 19:35 43.75399 48.09351 38064 ft 494 kts 158°
2026-05-07 19:36 43.69169 48.13396 38065 ft 494 kts 158°
2026-05-07 19:36 43.62946 48.17427 38066 ft 494 kts 158°
2026-05-07 19:37 43.56733 48.21443 38066 ft 493 kts 158°
2026-05-07 19:37 43.50545 48.25434 38070 ft 493 kts 158°
2026-05-07 19:38 43.44313 48.29443 38074 ft 493 kts 159°
2026-05-07 19:38 43.38108 48.33426 38080 ft 493 kts 159°
2026-05-07 19:39 43.31897 48.37404 38075 ft 492 kts 159°
2026-05-07 19:39 43.26736 48.40703 38078 ft 492 kts 159°
2026-05-07 19:40 43.19708 48.46041 38082 ft 497 kts 152°
2026-05-07 19:40 43.13903 48.51168 38079 ft 498 kts 151°
2026-05-07 19:41 43.08068 48.56397 38084 ft 498 kts 151°
2026-05-07 19:41 43.02311 48.61530 38083 ft 497 kts 151°
2026-05-07 19:42 42.96498 48.66681 38091 ft 497 kts 152°
2026-05-07 19:42 42.90695 48.71805 38076 ft 497 kts 152°
2026-05-07 19:43 42.84893 48.76917 38087 ft 496 kts 152°
2026-05-07 19:43 42.79078 48.82029 38082 ft 495 kts 152°
2026-05-07 19:44 42.73321 48.87071 38087 ft 494 kts 153°
2026-05-07 19:44 42.67461 48.91974 38089 ft 492 kts 154°
2026-05-07 19:45 42.61604 48.96783 38092 ft 491 kts 154°
2026-05-07 19:45 42.55781 49.01585 38095 ft 491 kts 154°
2026-05-07 19:46 42.50904 49.05621 38095 ft 491 kts 154°
2026-05-07 19:46 42.45086 49.10434 38095 ft 490 kts 154°
2026-05-07 19:47 42.39275 49.15230 38093 ft 490 kts 154°
2026-05-07 19:47 42.33450 49.20026 38096 ft 490 kts 154°
2026-05-07 19:48 42.27621 49.24815 38101 ft 490 kts 154°
2026-05-07 19:48 42.21588 49.29029 38102 ft 482 kts 165°
2026-05-07 19:49 42.15279 49.32041 38100 ft 480 kts 167°
2026-05-07 19:49 42.08966 49.34843 38099 ft 480 kts 168°
2026-05-07 19:50 42.02599 49.37653 38098 ft 480 kts 167°
2026-05-07 19:50 41.95444 49.40837 38102 ft 481 kts 167°
2026-05-07 19:51 41.70082 49.52114 38114 ft 480 kts 168°
2026-05-07 19:51 41.44800 49.63259 38112 ft 478 kts 168°
2026-05-07 19:52 41.19592 49.74279 38109 ft 476 kts 169°
2026-05-07 19:52 40.94421 49.85113 38112 ft 475 kts 169°
2026-05-07 19:53 40.69317 49.95774 38101 ft 476 kts 169°
2026-05-07 19:53 40.43968 50.05496 38104 ft 464 kts 180°
2026-05-07 19:54 40.18401 50.08829 38120 ft 460 kts 181°
2026-05-07 19:54 39.92999 50.12104 38132 ft 459 kts 181°
2026-05-07 19:55 39.67551 50.14608 38132 ft 453 kts 185°
2026-05-07 19:55 39.42372 50.16108 38131 ft 452 kts 185°
2026-05-07 19:56 39.17363 50.17675 38127 ft 451 kts 185°
2026-05-07 19:56 38.92322 50.19232 38123 ft 450 kts 185°
2026-05-07 19:57 38.67337 50.20775 38124 ft 449 kts 185°
2026-05-07 19:57 38.42464 50.22300 38122 ft 447 kts 185°
2026-05-07 19:58 38.17657 50.23810 38117 ft 447 kts 185°
2026-05-07 19:58 37.92843 50.25357 38120 ft 446 kts 186°
2026-05-07 19:59 37.68068 50.26902 38120 ft 439 kts 186°
2026-05-07 19:59 37.43859 50.28391 38117 ft 437 kts 186°
2026-05-07 20:00 37.19472 50.29898 38117 ft 436 kts 186°
2026-05-07 20:00 36.95338 50.31212 38105 ft 433 kts 188°
2026-05-07 20:01 36.80162 50.31791 38100 ft 431 kts 188°
2026-05-07 20:01 36.68215 50.32285 38091 ft 431 kts 188°
2026-05-07 20:02 36.56249 50.32787 38056 ft 427 kts 188°
2026-05-07 20:02 36.50292 50.33028 37949 ft 426 kts 188°
2026-05-07 20:02 36.44410 50.33266 37822 ft 426 kts 188°
2026-05-07 20:03 36.38470 50.33508 37692 ft 423 kts 187°
2026-05-07 20:03 36.32553 50.33753 37591 ft 423 kts 188°
2026-05-07 20:03 36.26700 50.33989 37476 ft 422 kts 188°
2026-05-07 20:03 36.20834 50.34156 37356 ft 420 kts 189°
2026-05-07 20:04 36.15063 50.34279 37240 ft 419 kts 189°
2026-05-07 20:04 36.09205 50.34413 37127 ft 419 kts 188°
2026-05-07 20:04 35.97569 50.34705 37070 ft 421 kts 188°
2026-05-07 20:05 35.85806 50.35010 37067 ft 421 kts 188°
2026-05-07 20:05 35.70755 50.35393 37062 ft 421 kts 188°
2026-05-07 20:06 35.47237 50.35990 37074 ft 424 kts 188°
2026-05-07 20:06 35.23645 50.36585 37078 ft 426 kts 188°
2026-05-07 20:07 34.99861 50.38078 37077 ft 447 kts 174°
2026-05-07 20:07 34.75953 50.48275 37070 ft 454 kts 171°
2026-05-07 20:08 34.52168 50.58451 37091 ft 457 kts 171°
2026-05-07 20:08 34.27942 50.68767 37121 ft 460 kts 171°
2026-05-07 20:09 34.03848 50.78957 37159 ft 462 kts 172°
2026-05-07 20:10 33.67222 50.94328 37204 ft 466 kts 172°
2026-05-07 20:10 33.42664 51.04567 37227 ft 466 kts 172°
2026-05-07 20:11 33.18067 51.14736 37227 ft 470 kts 172°
2026-05-07 20:11 32.93448 51.24866 37222 ft 472 kts 172°
2026-05-07 20:12 32.68548 51.35061 37210 ft 473 kts 172°
2026-05-07 20:12 32.43582 51.45221 37205 ft 472 kts 173°
2026-05-07 20:13 32.18729 51.55270 37507 ft 472 kts 173°
2026-05-07 20:13 31.93869 51.65255 37524 ft 473 kts 173°
2026-05-07 20:14 31.68921 51.75226 37547 ft 473 kts 173°
2026-05-07 20:14 31.60310 51.78683 37241 ft 470 kts 172°
2026-05-07 20:14 31.56521 51.80190 37257 ft 470 kts 172°
2026-05-07 20:15 31.31752 51.90042 37262 ft 472 kts 172°
2026-05-07 20:15 31.06929 51.99825 37262 ft 473 kts 172°
2026-05-07 20:16 30.81941 52.09641 37253 ft 474 kts 172°
2026-05-07 20:16 30.56858 52.19439 37238 ft 475 kts 172°
2026-05-07 20:17 30.31755 52.29132 37214 ft 476 kts 172°
2026-05-07 20:17 30.06463 52.38858 37184 ft 478 kts 171°
2026-05-07 20:18 29.81253 52.48505 37167 ft 480 kts 171°
2026-05-07 20:18 29.55897 52.58188 37171 ft 484 kts 169°
2026-05-07 20:18 29.43650 52.65730 37170 ft 499 kts 159°
2026-05-07 20:19 29.31836 52.73710 37157 ft 498 kts 159°
2026-05-07 20:19 29.07844 52.89683 37127 ft 499 kts 158°
2026-05-07 20:20 28.83818 53.05601 37089 ft 499 kts 158°
2026-05-07 20:20 28.64976 53.18023 37047 ft 499 kts 158°
2026-05-07 20:21 28.40048 53.30592 37002 ft 485 kts 171°
2026-05-07 20:21 28.14276 53.39712 36973 ft 485 kts 170°
2026-05-07 20:22 27.88514 53.48852 36943 ft 485 kts 170°